Globalstar M060

operational
NORAD ID: 26083 Int'l Des: 2000-008 Owner: GLOBT Country: US Constellation: globalstar
LEOCIRCULAR

Über Globalstar M060

Beschreibung wird geladen...

Live-Position

3D-Globus wird geladen...

Nächste Überflüge

Höhenverlauf

Altitude vs Time

uPlot chart will show altitude changes over time

Zweizeiliger Elementsatz

1 26083U 00008C 26062.13107538 -.00000104 00000-0 -12821-3 0 9995
2 26083 52.0033 50.9375 0003031 292.2495 146.5209 12.17676056183913
Epoch: 3. März 2026 • Age: 14 hours

Aktueller Status

Höhe 1617.5 km
Geschwindigkeit 7.06 km/s
Subsatellitenpunkt -48.22°S, 80.27°W
Startdatum 8. Feb. 2000
Alter 26 years
Typ communications

Technische Details

Klassifizierung Payload
Masse 450.00 kg
Trockenmasse 380.00 kg
Gesamtmasse 450.00 kg
Länge 1.50 m
Durchmesser 0.60 m
Spannweite 12.00 m
Form Box + 2 Pan
Hersteller LOR
Bus-Typ LS-400
Phasenstatus In Orbit
Besitzer/Staat GLOBT/US

Große Konstellationen

Loading constellations...